Wetbulb
72.95 73.22 72.89 72.87 72.57 72.20 71.71 71.64 71.81 72.40 72.63 71.37 71.74 71.62 70.38 69.73 69.24 69.18 68.13 68.19 68.62 68.62 68.82 68.82 68.61 68.42 67.24 66.43 66.63 66.81 64.82 63.52 62.14 61.64 63.57 62.45 65.99 66.12 66.44 67.94 66.96 65.19 65.62
72.23 71.76 71.86 72.25 72.68 72.27 71.05 70.58 71.50 71.36 71.36 70.73 71.14 71.32 68.64 67.38 69.28 68.63 67.52 67.85 68.07 68.33 68.78 68.33 67.12 66.07 65.32 64.78 64.64 64.76 65.08 62.70 62.20 59.69 60.81 60.61 62.20 67.21 68.55 68.63 66.57 65.84 66.27
70.43 70.19 70.48 70.28 70.51 69.83 70.51 70.28 69.20 69.31 68.64 68.37 67.92 68.10 67.76 66.48 65.41 66.73 66.87 67.92 67.89 67.80 68.87 68.73 68.87 68.07 67.76 66.49 65.99 65.66 65.28 63.97 64.66 62.08 60.03 61.09 61.08 63.87 64.97 66.67 66.99 67.43 65.90
70.60 70.08 69.57 69.30 69.55 69.95 70.26 69.49 68.89 67.16 65.74 65.91 67.75 67.77 66.71 66.14 66.24 66.12 66.24 67.08 67.39 67.93 68.58 68.19 67.95 67.62 67.26 65.03 64.20 64.88 66.21 65.31 62.51 62.55 61.85 60.52 61.28 62.23 63.62 62.56 62.01 64.09 63.32
70.51 70.06 69.55 69.42 69.18 70.80 68.49 68.04 65.29 64.92 66.22 67.00 66.40 65.67 65.83 65.99 65.21 64.87 65.82 65.86 66.08 66.83 67.14 67.97 67.90 66.59 65.75 65.87 64.92 65.50 66.81 66.17 65.05 63.81 61.59 60.73 59.81 59.83 60.88 61.89 61.49 62.06 64.02
70.28 69.77 69.40 68.99 68.84 69.24 67.22 64.38 63.84 64.36 65.42 66.40 67.34 66.15 64.77 66.33 64.23 64.50 65.23 65.43 66.15 66.27 66.42 66.95 67.02 65.93 64.38 63.41 63.49 63.97 65.08 64.35 64.22 63.45 63.01 62.51 63.12 62.69 62.64 61.16 61.32 61.38 60.10
69.68 69.45 68.85 68.43 68.18 69.07 67.06 64.95 64.98 65.19 65.59 65.71 66.64 66.65 66.77 67.21 63.11 63.09 64.59 65.91 65.41 65.29 65.86 65.82 65.47 66.77 66.42 65.17 63.13 62.36 61.95 62.00 64.65 66.17 64.34 64.08 63.65 64.70 65.25 63.78 64.07 64.19 62.99
69.34 68.68 68.66 68.28 67.72 68.07 67.09 65.17 65.66 66.05 65.51 64.61 64.50 65.73 65.62 65.99 62.49 61.30 63.35 65.53 64.80 64.73 65.84 66.49 65.87 66.39 66.30 65.50 66.02 65.88 65.81 65.12 64.67 64.78 66.77 66.53 67.28 67.84 67.21 66.68 66.52 66.31 65.30
68.86 68.49 68.25 67.86 67.17 67.90 67.18 66.39 66.34 65.55 65.35 65.58 65.27 65.29 66.40 66.33 60.71 60.02 61.75 64.69 64.42 64.98 65.87 65.98 65.77 66.12 62.31 61.52 65.83 64.79 64.71 64.78 57.98 58.42 59.81 60.10 59.99 61.97 64.67 65.63 63.65 62.35 61.26
69.33 68.78 68.43 67.80 66.23 65.18 66.20 66.43 66.09 66.84 66.96 66.73 66.56 65.84 65.13 66.33 59.79 59.03 61.05 65.35 64.60 64.69 64.58 65.32 62.79 64.86 58.76 58.53 65.66 64.75 63.17 63.76 63.67 63.42 62.64 58.76 59.37 60.68 60.12 66.11 65.47 62.96 62.48
70.18 68.80 68.13 67.65 66.63 66.64 67.28 65.79 64.71 64.55 64.89 65.51 66.29 65.70 65.77 65.72 63.54 57.64 57.76 65.01 64.82 63.30 63.99 63.60 63.21 58.19 55.89 55.44 58.70 65.95 64.11 65.05 63.76 64.61 63.51 63.06 63.73 63.99 63.22 62.49 63.51 61.33 60.90
69.46 68.45 67.82 67.68 67.19 66.54 66.39 65.95 65.02 64.67 64.24 64.28 64.01 64.05 65.05 64.64 60.37 56.79 56.47 59.50 62.04 65.42 64.28 65.18 63.99 55.69 53.41 53.61 56.96 58.22 56.71 58.31 64.00 63.29 62.35 62.27 62.80 63.10 64.14 65.30 65.55 63.51 62.96
69.07 68.42 68.06 67.79 67.31 66.56 65.20 64.29 64.13 64.44 63.24 62.90 63.04 63.10 63.45 64.64 63.63 57.15 55.61 56.69 58.13 62.83 63.65 62.84 58.00 53.60 52.86 54.47 54.47 55.32 54.99 62.91 63.27 62.34 61.78 62.24 63.31 64.49 66.13 65.62 66.41 66.71 66.18
68.99 68.49 67.71 67.18 64.99 65.99 64.88 63.87 62.65 63.97 63.50 63.90 63.56 63.12 62.84 62.14 62.28 60.96 61.09 58.80 57.60 60.23 59.41 61.99 60.18 59.14 57.91 60.31 60.11 58.59 63.26 63.95 63.45 62.61 62.31 63.35 64.37 64.47 64.30 64.69 63.27 63.09 63.46
68.84 67.99 66.96 66.17 63.28 64.53 65.05 64.62 64.48 66.06 64.53 64.57 64.72 63.03 61.49 60.72 61.27 58.55 58.97 62.78 64.29 62.18 61.67 62.32 60.10 59.87 61.45 62.04 62.54 63.09 63.17 63.20 62.11 62.93 63.14 63.09 63.59 63.98 63.67 64.46 63.95 62.98 61.68
66.80 63.18 63.64 64.84 63.99 64.94 64.28 64.48 57.98 56.07 53.79 53.08 51.68 59.32 63.87 56.56 51.34 49.93 49.45 49.82 49.97 49.77 59.72 60.74 61.09 61.36 60.48 60.19 59.82 60.00 61.41 61.17 62.22 62.88 62.77 62.48 62.36 62.64 62.98 63.66 63.70 62.52 61.26
66.60 65.18 64.35 62.92 64.24 63.87 64.11 63.84 62.91 59.53 50.88 48.63 48.09 49.12 51.02 54.27 47.78 47.00 46.88 45.53 45.94 50.25 61.17 61.42 61.42 62.08 61.98 62.28 62.05 61.51 60.60 60.36 62.77 61.48 62.31 62.40 62.28 61.14 61.59 62.33 62.77 61.97 61.11
67.04 57.91 65.36 64.35 64.06 64.34 64.79 63.84 63.62 63.53 62.93 63.40 51.70 52.23 46.32 46.93 45.81 44.90 43.90 48.14 55.36 55.07 62.43 62.36 62.69 63.11 63.18 63.01 62.64 61.60 62.64 63.33 62.79 61.51 60.19 60.61 61.26 61.62 61.35 61.26 61.50 62.04 61.84
65.67 65.28 65.63 64.03 64.59 63.18 65.44 64.65 64.21 64.16 63.86 63.41 64.14 52.87 51.33 44.07 44.10 43.27 43.87 62.22 61.77 61.55 61.62 61.86 62.91 63.53 64.01 64.14 64.09 64.03 64.34 63.70 63.54 63.75 63.30 62.54 61.80 61.08 60.33 60.41 60.73 54.90 57.54
66.48 62.49 62.31 64.91 64.66 63.65 63.35 64.15 63.99 63.93 63.88 63.51 62.93 62.90 63.75 57.12 59.13 59.76 57.97 60.80 62.07 62.38 63.06 62.70 63.06 63.56 63.75 64.33 64.19 64.05 63.81 63.43 63.65 63.23 63.39 63.51 63.72 63.54 62.04 60.79 59.86 59.10 60.09
65.00 66.01 62.61 63.74 63.11 62.99 62.66 62.48 63.61 64.28 63.44 62.80 62.81 62.28 55.16 62.15 61.77 62.10 62.31 61.65 61.79 62.42 62.91 63.28 63.44 63.50 62.56 64.34 64.92 64.29 63.80 63.58 63.99 63.85 63.37 63.40 63.35 62.96 63.27 63.40 62.20 61.78 62.00
65.43 65.37 64.42 62.84 63.21 62.76 62.06 62.27 62.54 63.89 64.26 62.56 63.16 62.39 48.44 62.07 63.34 64.20 64.23 64.04 64.41 64.28 64.96 65.38 64.66 64.74 64.91 64.08 63.59 63.67 63.67 61.44 62.90 64.02 63.87 63.81 63.68 63.36 62.99 62.90 62.88 63.02 62.88
66.05 64.42 63.91 63.19 63.39 61.12 62.37 60.86 60.56 60.70 61.75 62.95 63.89 63.72 62.28 62.05 63.14 62.56 63.30 64.78 65.22 65.21 65.43 64.94 64.84 64.82 65.49 65.32 63.93 63.67 62.33 62.96 64.44 64.09 63.42 63.82 63.69 63.59 63.49 62.77 62.60 62.05 62.02
64.29 64.66 64.01 64.03 64.86 63.03 62.15 61.52 61.19 56.85 61.81 61.87 62.13 62.98 61.81 62.29 62.31 63.36 64.77 65.73 66.06 66.12 65.05 64.16 64.79 64.69 64.57 63.68 63.82 64.00 64.24 64.45 64.86 64.39 64.80 63.91 63.69 62.04 63.17 63.19 62.92 62.88 62.74
64.35 63.65 63.70 63.74 63.47 60.46 62.37 62.84 63.11 61.97 61.91 61.86 62.57 63.19 64.22 64.57 63.79 63.62 63.77 65.41 65.80 65.60 65.82 66.19 65.63 61.99 62.14 62.57 64.31 65.04 59.42 41.94 57.65 55.78 64.04 63.91 63.15 63.18 63.04 62.51 62.64 62.72 63.06
63.84 64.22 64.70 63.65 63.10 62.06 62.35 62.64 63.41 63.52 63.36 63.18 64.40 63.10 63.10 65.09 65.88 65.97 65.84 65.61 65.22 65.19 65.45 65.09 65.10 65.03 65.06 65.15 63.88 50.41 43.79 41.86 47.79 38.85 59.82 62.32 62.18 61.94 62.37 62.51 62.79 62.36 62.45
MSLP
1008.74 1008.81 1008.88 1008.87 1008.88 1008.86 1008.88 1008.85 1008.79 1008.89 1009.04 1009.48 1009.76 1009.93 1010.46 1010.72 1011.02 1011.40 1011.67 1012.24 1012.33 1012.73 1012.79 1012.96 1013.31 1013.55 1014.02 1014.50 1014.93 1015.36 1015.75 1016.29 1016.34 1017.14 1017.39 1017.79 1017.71 1017.96 1017.98 1018.44 1018.78 1018.97 1019.20
1008.45 1008.51 1008.47 1008.40 1008.36 1008.37 1008.44 1008.46 1008.50 1008.56 1008.77 1009.04 1009.42 1009.71 1010.26 1010.58 1011.03 1010.97 1011.46 1011.77 1011.90 1011.90 1012.02 1012.42 1012.84 1012.96 1013.18 1013.66 1014.34 1014.89 1015.17 1016.06 1016.22 1016.72 1017.08 1017.57 1017.95 1018.14 1017.84 1018.18 1018.38 1018.40 1018.72
1008.24 1008.25 1008.15 1008.09 1008.06 1008.09 1008.02 1008.03 1008.20 1008.37 1008.58 1008.88 1009.30 1009.68 1010.04 1010.41 1010.68 1010.89 1011.42 1011.19 1011.48 1011.68 1011.56 1011.70 1012.00 1012.60 1013.02 1013.26 1014.05 1014.32 1015.02 1015.60 1015.82 1016.24 1016.98 1017.55 1018.09 1018.24 1018.20 1018.22 1018.36 1018.43 1018.63
1007.85 1007.90 1007.81 1007.80 1007.77 1007.71 1007.73 1007.76 1007.88 1008.20 1008.54 1008.89 1009.20 1009.47 1009.99 1010.34 1010.50 1010.82 1010.96 1011.21 1011.48 1011.48 1011.32 1011.46 1011.84 1012.28 1012.52 1013.06 1013.58 1014.16 1014.46 1015.22 1015.84 1016.02 1016.47 1017.05 1017.44 1017.94 1017.90 1017.75 1018.03 1018.44 1018.23
1007.37 1007.47 1007.45 1007.49 1007.53 1007.24 1007.46 1007.60 1007.92 1008.13 1008.47 1008.77 1009.20 1009.48 1009.72 1010.16 1010.41 1010.82 1011.24 1011.41 1011.51 1011.23 1011.25 1011.66 1011.91 1012.20 1012.50 1012.61 1012.68 1013.40 1013.82 1014.53 1015.16 1015.54 1015.86 1016.32 1016.86 1017.32 1017.13 1017.18 1017.36 1017.67 1018.26
1006.87 1006.96 1007.11 1007.14 1007.14 1007.08 1007.20 1007.62 1007.86 1008.16 1008.59 1008.72 1008.80 1009.20 1009.60 1009.80 1010.39 1010.68 1011.06 1011.21 1011.19 1011.21 1011.28 1011.45 1011.76 1012.32 1012.46 1012.79 1013.10 1013.33 1013.65 1014.02 1014.23 1014.37 1014.68 1015.14 1015.78 1016.26 1016.42 1016.67 1016.80 1017.12 1017.36
1006.56 1006.74 1006.87 1006.88 1006.90 1006.94 1007.04 1007.24 1007.50 1007.82 1008.20 1008.44 1008.47 1008.82 1009.10 1009.53 1010.20 1010.53 1010.54 1010.94 1011.19 1011.12 1011.03 1011.17 1011.47 1011.64 1012.22 1012.60 1013.07 1013.43 1013.77 1014.13 1014.09 1014.11 1014.25 1014.72 1015.30 1015.56 1015.86 1016.41 1016.56 1016.54 1016.60
1006.03 1006.30 1006.44 1006.58 1006.60 1006.60 1006.81 1006.91 1007.09 1007.34 1007.59 1007.90 1008.14 1008.46 1008.79 1009.00 1009.70 1010.18 1010.45 1010.85 1011.06 1011.05 1010.98 1010.90 1011.16 1011.57 1011.99 1012.22 1012.46 1012.89 1013.20 1013.63 1014.17 1013.89 1014.14 1014.40 1014.70 1015.25 1015.51 1015.80 1016.14 1016.45 1017.05
1005.40 1005.74 1006.00 1006.11 1006.21 1006.26 1006.34 1006.50 1006.67 1006.95 1007.18 1007.52 1007.74 1007.95 1008.18 1008.57 1009.04 1009.42 1010.16 1010.41 1010.49 1010.55 1010.76 1010.96 1011.18 1011.58 1011.80 1012.18 1012.46 1012.68 1013.05 1013.50 1014.19 1014.42 1014.74 1014.90 1015.15 1015.34 1015.36 1015.59 1015.95 1016.08 1016.05
1004.69 1005.15 1005.55 1005.84 1006.03 1006.11 1006.07 1006.05 1006.21 1006.44 1006.71 1007.01 1007.16 1007.42 1007.48 1007.96 1008.61 1009.15 1009.73 1010.01 1010.16 1010.32 1010.75 1010.96 1011.24 1011.39 1011.90 1012.19 1012.27 1012.60 1013.01 1013.34 1013.67 1014.18 1014.79 1015.18 1015.25 1015.61 1015.98 1015.60 1015.61 1015.42 1015.42
1004.11 1004.58 1005.04 1005.44 1005.63 1005.66 1005.74 1005.90 1006.00 1006.26 1006.38 1006.70 1006.84 1007.06 1007.35 1007.74 1008.12 1008.78 1009.24 1009.54 1009.73 1010.01 1010.38 1010.76 1011.11 1011.46 1011.81 1012.12 1012.34 1012.42 1012.75 1012.97 1013.59 1013.80 1013.94 1014.23 1014.58 1014.95 1015.29 1015.62 1015.52 1015.33 1015.15
1003.56 1003.88 1004.21 1004.71 1004.99 1005.14 1005.48 1005.65 1005.72 1005.98 1006.20 1006.39 1006.63 1006.85 1007.10 1007.47 1007.80 1008.42 1008.92 1009.31 1009.63 1009.74 1010.12 1010.27 1010.65 1011.34 1011.76 1012.08 1012.35 1012.31 1012.70 1012.94 1012.83 1012.99 1013.14 1013.35 1013.58 1013.79 1014.15 1014.49 1014.91 1015.27 1015.05
1002.74 1002.94 1003.26 1004.01 1004.44 1004.76 1005.12 1005.42 1005.43 1005.64 1005.86 1006.08 1006.32 1006.59 1006.80 1007.09 1007.65 1008.11 1008.70 1009.11 1009.44 1009.84 1009.83 1009.89 1010.41 1011.04 1011.51 1012.00 1012.07 1012.18 1012.58 1012.60 1012.26 1012.36 1012.45 1012.69 1012.86 1013.06 1013.33 1013.92 1014.44 1014.93 1015.32
1002.59 1002.89 1003.05 1003.25 1003.97 1004.39 1004.67 1004.94 1005.13 1005.05 1005.30 1005.47 1005.80 1006.18 1006.58 1007.01 1007.47 1008.10 1008.58 1009.15 1009.32 1009.50 1009.76 1009.92 1010.28 1010.65 1010.98 1011.08 1011.52 1011.90 1011.74 1011.66 1011.68 1011.74 1011.79 1011.96 1012.18 1012.45 1013.02 1013.28 1013.51 1013.84 1014.16
1001.22 1002.87 1003.60 1003.58 1003.95 1004.06 1004.18 1004.19 1004.52 1004.28 1004.35 1004.79 1004.81 1005.43 1006.02 1006.59 1007.07 1007.52 1007.96 1008.27 1008.34 1008.38 1008.92 1009.20 1009.60 1009.92 1010.12 1010.40 1010.50 1010.54 1010.84 1011.15 1011.40 1011.39 1011.33 1011.37 1011.58 1011.97 1012.25 1012.53 1012.86 1013.03 1013.18
1001.39 1001.56 1000.39 1002.50 1003.33 1003.22 1003.35 1003.59 1004.12 1004.26 1004.44 1004.74 1004.84 1004.87 1005.01 1005.50 1006.09 1006.90 1007.39 1007.72 1008.06 1008.44 1008.72 1008.52 1008.61 1008.82 1009.03 1009.16 1009.34 1009.52 1009.85 1010.16 1010.28 1010.52 1010.76 1011.00 1011.04 1011.18 1011.47 1011.74 1012.14 1012.30 1012.38
1000.32 1000.02 1000.20 1000.69 1001.82 1002.41 1002.59 1002.59 1003.17 1004.15 1004.48 1004.78 1004.92 1005.01 1005.14 1005.20 1006.11 1006.59 1007.01 1007.75 1008.24 1008.52 1008.03 1007.78 1007.78 1007.93 1008.10 1008.23 1008.34 1008.54 1008.70 1008.84 1009.22 1009.58 1009.82 1010.15 1010.54 1010.84 1010.95 1011.02 1011.26 1011.62 1011.64
999.67 999.88 999.95 1000.71 1001.25 1001.61 1001.71 1001.61 1002.35 1002.64 1003.10 1003.56 1004.24 1004.60 1005.08 1005.54 1005.91 1006.30 1007.00 1007.56 1008.22 1008.32 1007.34 1006.96 1006.86 1007.04 1007.17 1007.32 1007.56 1007.90 1007.94 1008.00 1008.31 1008.66 1008.84 1009.11 1009.38 1009.61 1009.80 1010.08 1010.26 1010.53 1010.72
999.35 999.29 999.91 1000.15 1000.42 1001.29 1001.38 1001.06 1001.44 1001.78 1001.98 1002.20 1002.76 1004.06 1004.48 1005.18 1005.78 1006.28 1006.52 1006.32 1006.13 1006.20 1006.28 1006.18 1006.10 1006.02 1005.94 1006.15 1006.39 1006.65 1006.92 1007.27 1007.42 1007.53 1007.88 1008.03 1008.26 1008.47 1008.56 1008.66 1008.80 1009.16 1009.46
998.46 998.76 999.40 999.56 1000.04 1000.38 1000.53 1000.46 1000.54 1001.02 1001.28 1001.47 1001.80 1002.16 1002.78 1004.39 1005.02 1005.17 1005.48 1005.25 1004.99 1004.73 1004.62 1004.79 1004.85 1004.94 1005.02 1005.11 1005.34 1005.62 1005.98 1006.36 1006.48 1006.54 1006.66 1006.72 1006.92 1007.12 1007.24 1007.37 1007.59 1007.73 1007.89
998.10 998.29 998.71 999.17 999.66 999.46 1000.04 1000.00 1000.16 1000.19 1000.39 1000.58 1000.87 1001.26 1001.72 1002.30 1002.45 1002.82 1003.09 1003.53 1003.49 1003.34 1003.30 1003.34 1003.29 1003.69 1004.08 1004.00 1004.10 1004.29 1004.54 1004.79 1004.96 1005.11 1005.23 1005.32 1005.46 1005.59 1005.83 1005.88 1005.98 1006.17 1006.35
997.92 998.01 998.47 998.84 999.05 999.18 999.43 999.58 1000.04 1000.04 999.88 1000.02 1000.14 1000.43 1001.16 1001.70 1001.41 1001.51 1001.82 1001.95 1001.80 1001.94 1001.87 1002.06 1002.19 1002.31 1002.37 1002.74 1003.10 1003.26 1003.56 1003.65 1003.74 1003.63 1003.74 1003.89 1003.97 1004.07 1004.16 1004.35 1004.49 1004.64 1004.74
997.47 997.74 997.92 998.31 998.49 998.67 999.00 999.55 999.65 999.90 1000.07 1000.12 999.90 999.68 1000.20 1000.64 1000.61 1000.75 1000.79 1000.60 1000.80 1000.91 1001.06 1001.28 1001.24 1001.14 1001.32 1001.60 1002.00 1002.22 1002.38 1002.20 1002.27 1002.45 1002.59 1002.48 1002.56 1002.62 1002.76 1002.82 1002.91 1003.13 1003.25
997.55 997.60 997.79 997.98 998.10 998.38 998.50 998.92 999.08 999.19 999.36 999.56 999.90 999.87 1000.02 999.98 1000.00 999.81 999.50 999.24 999.29 999.55 1000.12 1000.58 1000.77 1001.02 1001.33 1001.51 1001.43 1001.16 1001.19 1001.24 1001.46 1001.29 1001.60 1001.53 1001.35 1001.41 1001.57 1001.51 1001.51 1001.55 1001.76
997.52 997.57 997.66 997.85 998.04 998.58 998.23 998.48 998.32 998.62 998.84 999.09 999.19 999.19 999.00 999.03 999.31 999.21 999.38 999.12 999.06 999.24 999.22 999.32 999.77 1000.17 1000.46 1000.53 1000.64 1000.28 1000.08 999.88 1000.78 1000.71 1000.90 1000.78 1000.44 1000.36 1000.44 1000.43 1000.24 1000.32 1000.53
997.88 997.71 997.63 998.00 998.05 998.14 998.06 997.81 997.70 997.78 997.92 998.10 998.28 998.52 998.61 998.33 998.18 998.09 997.98 998.36 998.70 998.97 999.09 999.03 999.00 999.16 999.23 999.18 999.28 999.72 999.40 999.45 1000.12 1000.24 1000.64 1000.20 999.65 999.41 999.28 999.21 999.14 999.14 999.14
Wind_Speed
4 5 6 7 9 11 11 13 14 13 13 12 13 12 11 9 6 7 6 6 11 11 10 10 11 9 7 6 5 5 5 2 5 2 1 1 2 5 9 8 7 7 7
2 3 5 7 8 9 10 10 11 13 11 10 12 12 8 7 8 9 7 8 10 11 10 9 7 2 5 5 5 5 6 5 2 7 2 2 1 5 6 8 7 7 6
3 4 5 6 7 9 10 10 9 10 8 6 6 7 7 5 4 6 8 8 9 10 10 9 9 9 7 7 8 8 7 6 5 5 4 2 2 3 5 6 7 5 6
5 6 7 6 8 8 10 9 9 6 5 3 9 9 8 5 6 4 4 6 8 8 7 6 7 9 9 10 8 7 8 7 4 5 4 5 6 5 6 7 6 5 6
7 6 7 7 8 9 8 7 5 5 4 6 7 7 7 6 5 6 6 6 8 7 6 8 9 9 8 9 7 8 9 8 8 7 6 5 6 5 8 6 7 7 6
8 8 6 7 7 7 7 7 6 5 7 7 8 9 6 5 10 12 8 7 9 10 10 9 7 8 8 9 4 8 9 10 9 8 8 9 10 6 7 8 7 7 7
8 8 7 7 8 7 7 8 10 9 8 10 11 11 11 10 12 13 14 8 9 11 10 9 7 7 8 8 8 9 8 3 2 8 9 9 9 9 8 8 7 7 5
10 9 7 7 8 7 6 7 7 7 9 7 8 10 9 8 14 13 14 9 7 8 10 10 9 9 9 9 9 8 7 7 8 6 7 7 6 8 8 7 7 5 3
10 10 8 8 8 8 6 7 7 7 7 9 8 10 12 10 14 14 11 9 10 10 9 8 8 8 9 9 9 9 7 6 5 5 7 7 7 7 5 6 7 8 7
10 9 8 8 7 8 8 5 4 6 8 7 8 9 13 11 13 14 13 6 10 7 6 7 9 8 12 11 9 9 9 9 7 6 6 6 7 6 6 6 6 8 7
8 8 8 9 8 9 7 5 4 5 5 7 8 7 8 9 9 13 14 10 8 6 6 6 6 8 11 12 9 9 9 7 7 7 6 6 6 7 8 9 8 8 8
8 9 10 10 8 7 8 6 6 6 7 6 6 5 5 6 8 12 14 10 7 7 7 7 6 12 11 11 10 8 8 7 5 6 7 8 7 7 7 7 9 9 8
10 11 11 10 9 8 8 8 6 6 5 5 5 5 5 5 5 11 13 10 10 6 5 6 9 11 10 8 10 7 7 7 7 7 8 8 8 7 7 8 9 9 10
10 10 9 10 9 9 7 7 7 7 6 7 7 7 5 5 5 5 6 7 5 6 6 7 6 5 6 5 7 7 8 8 9 10 9 9 9 7 8 8 9 9 9
10 7 5 7 8 8 9 8 8 9 9 9 8 7 7 7 7 9 10 10 10 9 8 6 7 7 9 9 9 9 8 8 8 8 8 9 9 8 9 8 9 9 10
10 9 11 9 7 10 9 9 9 7 9 6 1 7 10 6 12 13 11 10 8 14 7 8 9 9 10 10 10 11 11 11 10 10 9 9 9 9 9 9 9 10 11
12 9 8 10 8 10 10 10 10 8 6 7 9 10 10 6 11 13 13 9 9 11 8 9 9 10 11 11 10 10 11 11 11 11 11 11 10 9 9 9 10 11 11
13 8 7 6 6 9 12 11 10 10 11 11 11 11 11 8 11 9 13 12 5 6 9 10 11 11 11 11 11 11 11 11 11 12 13 13 13 12 12 12 11 12 12
12 8 7 5 6 8 10 10 10 11 11 10 10 6 11 9 5 9 15 10 10 10 11 11 10 10 10 10 10 10 10 11 11 11 12 12 13 13 14 14 14 14 13
9 8 9 9 8 9 8 9 11 11 11 10 10 10 10 9 9 10 10 11 11 11 11 12 12 11 11 11 11 11 10 11 11 12 12 13 13 13 14 14 13 14 14
7 7 9 7 7 7 7 7 9 11 11 11 11 11 12 11 11 11 12 12 13 13 13 13 13 11 10 11 12 12 14 13 13 13 13 13 14 13 14 14 15 15 15
8 7 8 8 8 6 5 5 7 9 10 10 11 10 13 11 9 10 9 9 12 13 12 12 12 12 12 12 12 12 12 11 12 14 14 14 14 15 15 15 15 16 16
5 6 7 7 9 9 8 6 6 6 6 8 9 9 8 9 10 9 11 12 11 11 11 11 12 12 11 12 9 10 13 15 14 13 14 15 14 14 15 16 16 16 16
3 6 6 7 7 6 5 5 6 8 8 7 6 6 5 7 9 13 13 12 12 11 7 6 9 12 11 11 12 12 13 15 13 14 19 16 15 14 16 16 16 19 17
2 3 3 5 6 5 6 8 7 8 7 7 8 8 9 10 10 10 10 10 9 10 11 8 9 7 11 18 20 19 16 12 16 14 13 17 19 20 17 16 17 16 18
3 4 4 3 4 5 8 9 6 6 7 7 5 5 5 8 8 7 6 6 6 6 7 6 7 12 15 14 13 14 11 14 11 13 15 15 15 15 16 19 24 16 19
Wind_Direction
208 233 242 246 246 247 247 248 247 244 234 228 220 197 190 189 183 176 187 192 220 221 210 213 222 199 186 181 177 188 188 196 203 142 135 96 159 192 176 189 174 193 181
205 265 276 276 263 253 243 241 244 237 229 212 204 201 182 173 202 196 202 211 227 229 222 212 204 178 154 149 152 189 176 159 158 143 125 132 121 231 197 189 190 198 205
227 270 287 291 284 262 251 239 220 220 200 179 174 197 196 175 163 195 212 212 221 218 205 197 193 184 187 173 198 203 184 170 171 147 127 111 119 207 194 210 199 202 215
241 269 285 290 289 272 261 238 214 178 155 184 229 228 182 169 186 180 194 214 217 220 204 196 207 204 193 176 184 187 181 173 178 157 151 161 169 172 205 190 182 208 208
252 266 281 297 290 284 232 219 175 156 171 173 159 160 161 176 152 168 197 212 217 214 205 205 203 198 190 185 177 174 166 181 181 180 180 173 173 172 195 183 191 183 195
249 266 283 297 300 291 205 193 184 184 198 218 201 179 172 182 172 180 181 205 216 209 198 185 185 181 175 171 177 158 173 176 184 191 191 195 183 177 171 178 175 180 183
242 256 274 290 290 281 207 194 199 192 189 209 200 193 191 198 176 194 191 201 203 207 196 176 173 172 164 165 153 153 163 102 193 183 181 189 173 178 167 178 189 187 195
236 240 246 262 272 274 216 198 196 185 193 189 195 194 202 180 180 192 191 199 200 207 211 186 182 172 169 160 162 165 169 170 175 191 182 173 183 170 182 191 192 174 150
233 235 241 243 254 259 234 203 199 189 184 189 196 196 201 198 188 186 183 193 202 206 204 195 180 180 158 163 170 168 164 179 127 81 81 92 109 133 161 167 184 197 203
232 231 228 237 243 249 247 204 186 197 202 199 205 205 210 214 187 193 183 192 202 193 185 195 181 192 153 166 182 175 180 186 191 178 184 155 159 160 183 225 188 206 213
223 217 218 225 228 238 237 204 191 185 179 200 215 207 203 205 196 187 189 198 196 180 182 183 182 165 167 181 208 190 201 182 181 208 205 198 191 191 199 210 218 233 227
216 218 214 214 220 219 227 214 197 196 197 203 198 196 202 198 188 183 187 204 180 192 194 182 173 167 176 185 193 186 192 194 214 208 209 211 215 215 213 215 216 227 242
217 218 213 212 214 216 216 221 196 187 189 190 189 181 178 176 174 178 181 173 184 187 183 164 150 170 173 191 223 190 183 217 226 223 220 225 229 236 237 220 220 218 232
239 227 217 208 206 209 211 212 213 193 190 197 196 189 170 163 166 165 176 184 194 209 168 172 169 192 204 221 167 191 215 220 225 230 233 234 236 228 218 221 227 215 226
202 244 276 247 215 198 213 207 212 214 204 198 195 174 161 177 191 179 178 186 192 188 170 176 186 194 205 210 215 214 209 208 216 227 234 235 230 224 225 220 222 225 226
195 197 155 219 226 213 213 216 237 277 185 215 149 212 188 206 162 176 187 199 153 140 193 202 208 211 216 217 218 220 222 220 224 229 228 232 233 227 229 222 218 224 226
216 206 188 182 196 210 211 212 222 204 206 218 210 215 226 188 173 179 187 136 152 160 223 216 226 222 225 224 225 225 228 224 220 228 229 228 229 234 226 233 221 227 230
232 243 211 190 191 213 210 205 217 221 209 215 204 212 208 189 179 162 136 137 149 227 226 229 224 224 226 227 226 229 239 236 223 230 230 233 234 234 231 228 229 227 228
243 248 207 185 178 222 223 209 212 223 222 218 214 178 204 187 160 142 170 210 214 212 217 229 233 237 231 228 227 226 226 228 227 227 232 230 229 231 233 236 233 228 225
251 222 188 200 203 204 195 210 209 220 221 218 210 213 188 154 196 198 201 212 226 231 226 227 230 232 233 230 228 228 229 229 231 228 232 229 228 228 230 230 230 233 224
264 227 185 196 205 185 200 191 213 224 219 217 213 207 191 197 203 206 202 210 222 230 233 235 237 233 232 231 228 228 230 238 238 237 236 229 229 226 224 228 229 225 231
248 234 196 219 223 188 201 192 222 228 229 221 219 209 175 215 226 228 228 231 228 232 237 236 238 240 236 230 230 232 232 233 244 242 234 234 232 229 227 227 231 232 235
266 242 224 217 211 201 189 187 200 208 214 247 250 234 190 216 228 229 232 235 236 239 238 237 243 247 243 239 229 224 228 234 237 236 237 238 234 231 231 229 226 228 228
264 250 229 229 207 183 189 202 211 204 212 233 241 230 222 240 235 246 247 246 249 250 258 242 241 247 257 248 247 240 236 242 247 240 243 246 242 234 235 232 229 230 235
266 247 233 229 207 204 226 231 229 215 201 211 219 228 230 228 229 235 235 248 246 244 251 244 241 243 238 245 259 265 259 241 241 244 242 244 242 244 243 235 233 231 233
324 299 278 228 238 235 253 260 234 224 236 245 225 242 245 263 248 246 257 268 255 256 260 259 266 279 284 279 285 323 267 261 251 238 242 249 244 239 239 238 237 234 233